Time,TemperatureF,DewpointF,PressureIn,WindDirection,WindDirectionDegrees,WindSpeedMPH,WindSpeedGustMPH,Humidity,HourlyPrecipIn,Conditions,Clouds,dailyrainin,SoftwareType,DateUTC
2013-06-11 00:03:00,60.0,59.0,29.97,SW,216,0.0,0.0,95,0.00,,,0.03,,2013-06-11 04:03:00,
2013-06-11 00:13:00,60.0,59.0,29.97,SW,216,0.0,0.0,95,0.00,,,0.03,,2013-06-11 04:13:00,
2013-06-11 00:23:00,60.0,59.0,29.97,SW,216,0.0,0.0,95,0.00,,,0.03,,2013-06-11 04:23:00,
2013-06-11 00:33:00,60.0,59.0,29.97,SW,216,0.0,0.0,95,0.00,,,0.03,,2013-06-11 04:33:00,
2013-06-11 00:42:00,60.0,59.0,29.97,SW,216,0.0,0.0,95,0.00,,,0.03,,2013-06-11 04:42:00,
2013-06-11 00:53:00,60.0,59.0,29.96,SW,216,0.0,0.0,95,0.00,,,0.03,,2013-06-11 04:53:00,
2013-06-11 01:02:00,59.0,58.0,29.96,SW,216,0.0,0.0,95,0.00,,,0.03,,2013-06-11 05:02:00,
2013-06-11 01:12:00,59.0,58.0,29.96,SW,216,0.0,0.0,95,0.00,,,0.03,,2013-06-11 05:12:00,
2013-06-11 01:22:00,59.0,58.0,29.96,SW,216,0.0,0.0,96,0.00,,,0.03,,2013-06-11 05:22:00,
2013-06-11 01:32:00,60.0,59.0,29.97,SW,216,0.0,0.0,96,0.00,,,0.03,,2013-06-11 05:32:00,
2013-06-11 01:42:00,60.0,59.0,29.97,SW,216,0.0,0.0,96,0.00,,,0.03,,2013-06-11 05:42:00,
2013-06-11 01:52:00,60.0,59.0,29.97,SW,216,0.0,0.0,97,0.00,,,0.02,,2013-06-11 05:52:00,
2013-06-11 02:02:00,60.0,59.0,29.97,SW,216,0.0,0.0,97,0.00,,,0.02,,2013-06-11 06:02:00,
2013-06-11 02:12:00,60.0,59.0,29.97,SW,216,0.0,0.0,97,0.00,,,0.02,,2013-06-11 06:12:00,
2013-06-11 02:22:00,61.0,60.0,29.97,SW,216,0.0,1.0,97,0.00,,,0.02,,2013-06-11 06:22:00,
2013-06-11 02:32:00,61.0,60.0,29.96,SW,216,0.0,0.0,97,0.00,,,0.02,,2013-06-11 06:32:00,
2013-06-11 02:42:00,61.0,60.0,29.96,SW,216,0.0,0.0,97,0.00,,,0.02,,2013-06-11 06:42:00,
2013-06-11 02:52:00,62.0,61.0,29.96,NW,307,1.0,5.0,97,0.00,,,0.02,,2013-06-11 06:52:00,
2013-06-11 03:02:00,62.0,61.0,29.95,NW,307,0.0,0.0,97,0.00,,,0.02,,2013-06-11 07:02:00,
2013-06-11 03:13:00,62.0,61.0,29.94,NW,307,0.0,0.0,97,0.00,,,0.02,,2013-06-11 07:13:00,
2013-06-11 03:22:00,62.0,61.0,29.94,NW,307,0.0,0.0,97,0.00,,,0.02,,2013-06-11 07:22:00,
2013-06-11 03:32:00,62.0,61.0,29.95,NW,307,0.0,0.0,97,0.00,,,0.02,,2013-06-11 07:32:00,
2013-06-11 03:42:00,62.0,61.0,29.94,NW,307,0.0,2.0,97,0.00,,,0.02,,2013-06-11 07:42:00,
2013-06-11 03:52:00,62.0,61.0,29.94,NW,307,0.0,2.0,97,0.00,,,0.02,,2013-06-11 07:52:00,
2013-06-11 04:02:00,62.0,61.0,29.94,NW,304,0.0,2.0,97,0.00,,,0.02,,2013-06-11 08:02:00,
2013-06-11 04:12:00,62.0,61.0,29.94,NW,304,0.0,2.0,97,0.00,,,0.02,,2013-06-11 08:12:00,
2013-06-11 04:22:00,62.0,61.0,29.94,WNW,284,0.0,3.0,97,0.00,,,0.02,,2013-06-11 08:22:00,
2013-06-11 04:32:00,62.0,61.0,29.94,West,277,0.0,2.0,97,0.00,,,0.02,,2013-06-11 08:32:00,
2013-06-11 04:42:00,62.0,61.0,29.94,West,277,0.0,2.0,97,0.00,,,0.02,,2013-06-11 08:42:00,
2013-06-11 04:52:00,62.0,61.0,29.94,West,277,0.0,2.0,97,0.00,,,0.02,,2013-06-11 08:52:00,
2013-06-11 05:02:00,62.0,61.0,29.94,West,277,0.0,2.0,97,0.00,,,0.02,,2013-06-11 09:02:00,
2013-06-11 05:12:00,62.0,61.0,29.94,West,277,0.0,2.0,97,0.00,,,0.02,,2013-06-11 09:12:00,
2013-06-11 05:22:00,62.0,61.0,29.94,WSW,249,0.0,4.0,97,0.00,,,0.02,,2013-06-11 09:22:00,
2013-06-11 05:33:00,62.0,61.0,29.94,WSW,249,0.0,2.0,97,0.00,,,0.02,,2013-06-11 09:33:00,
2013-06-11 05:43:00,62.0,61.0,29.94,WSW,249,0.0,2.0,97,0.00,,,0.02,,2013-06-11 09:43:00,
2013-06-11 05:53:00,61.0,60.0,29.94,NNW,327,1.0,6.0,97,0.00,,,0.02,,2013-06-11 09:53:00,
2013-06-11 06:03:00,61.0,60.0,29.95,West,269,0.0,5.0,97,0.00,,,0.02,,2013-06-11 10:03:00,
2013-06-11 06:12:00,61.0,60.0,29.95,West,269,0.0,5.0,97,0.00,,,0.02,,2013-06-11 10:12:00,
2013-06-11 06:23:00,61.0,60.0,29.95,West,261,1.0,6.0,97,0.00,,,0.02,,2013-06-11 10:23:00,
2013-06-11 06:33:00,61.0,60.0,29.96,NW,305,1.0,5.0,97,0.00,,,0.02,,2013-06-11 10:33:00,
2013-06-11 06:42:00,61.0,60.0,29.96,NW,305,1.0,5.0,97,0.00,,,0.02,,2013-06-11 10:42:00,
2013-06-11 06:52:00,61.0,60.0,29.96,WSW,258,1.0,6.0,97,0.00,,,0.02,,2013-06-11 10:52:00,
2013-06-11 07:02:00,62.0,61.0,29.97,SW,225,0.0,5.0,97,0.00,,,0.02,,2013-06-11 11:02:00,
2013-06-11 07:12:00,62.0,61.0,29.97,SW,225,0.0,5.0,97,0.00,,,0.02,,2013-06-11 11:12:00,
2013-06-11 07:22:00,62.0,61.0,29.97,WSW,241,2.0,5.0,96,0.00,,,0.02,,2013-06-11 11:22:00,
2013-06-11 07:32:00,62.0,61.0,29.98,WSW,244,1.0,5.0,96,0.00,,,0.02,,2013-06-11 11:32:00,
2013-06-11 07:42:00,62.0,61.0,29.98,WSW,244,1.0,5.0,96,0.00,,,0.02,,2013-06-11 11:42:00,
2013-06-11 07:52:00,62.0,61.0,29.98,West,267,1.0,6.0,95,0.00,,,0.02,,2013-06-11 11:52:00,
2013-06-11 08:02:00,62.0,60.0,29.98,West,269,1.0,4.0,94,0.00,,,0.02,,2013-06-11 12:02:00,
2013-06-11 08:12:00,62.0,60.0,29.98,West,269,1.0,4.0,94,0.00,,,0.02,,2013-06-11 12:12:00,
2013-06-11 08:22:00,63.0,61.0,29.99,West,265,0.0,8.0,93,0.00,,,0.02,,2013-06-11 12:22:00,
2013-06-11 08:32:00,63.0,61.0,29.99,West,275,0.0,7.0,92,0.00,,,0.02,,2013-06-11 12:32:00,
2013-06-11 08:42:00,63.0,61.0,30.00,West,268,1.0,6.0,92,0.00,,,0.02,,2013-06-11 12:42:00,
2013-06-11 08:52:00,63.0,61.0,30.00,West,268,1.0,6.0,92,0.00,,,0.02,,2013-06-11 12:52:00,
2013-06-11 09:02:00,63.0,60.0,30.00,West,265,3.0,10.0,91,0.00,,,0.02,,2013-06-11 13:02:00,
2013-06-11 09:12:00,63.0,60.0,30.00,West,265,3.0,10.0,91,0.00,,,0.02,,2013-06-11 13:12:00,
2013-06-11 09:22:00,64.0,61.0,30.00,WSW,242,3.0,11.0,90,0.01,,,0.03,,2013-06-11 13:22:00,
2013-06-11 09:32:00,64.0,61.0,30.01,WSW,244,1.0,10.0,89,0.01,,,0.03,,2013-06-11 13:32:00,
2013-06-11 09:42:00,64.0,61.0,30.01,WSW,244,1.0,10.0,89,0.01,,,0.03,,2013-06-11 13:42:00,
2013-06-11 09:52:00,65.0,61.0,30.02,WSW,250,1.0,6.0,88,0.01,,,0.03,,2013-06-11 13:52:00,
2013-06-11 10:02:00,65.0,61.0,30.01,WSW,240,1.0,9.0,87,0.01,,,0.03,,2013-06-11 14:02:00,
2013-06-11 10:12:00,65.0,61.0,30.01,WSW,240,1.0,9.0,87,0.01,,,0.03,,2013-06-11 14:12:00,
2013-06-11 10:22:00,66.0,62.0,30.01,WSW,250,1.0,6.0,87,0.00,,,0.03,,2013-06-11 14:22:00,
2013-06-11 10:32:00,66.0,61.0,30.01,WSW,251,2.0,9.0,85,0.00,,,0.03,,2013-06-11 14:32:00,
2013-06-11 10:42:00,66.0,61.0,30.01,WSW,251,2.0,9.0,85,0.00,,,0.03,,2013-06-11 14:42:00,
2013-06-11 10:53:00,67.0,62.0,30.01,SW,232,1.0,9.0,84,0.00,,,0.03,,2013-06-11 14:53:00,
2013-06-11 11:02:00,67.0,62.0,30.01,WSW,244,5.0,14.0,83,0.00,,,0.03,,2013-06-11 15:02:00,
2013-06-11 11:12:00,67.0,62.0,30.01,WSW,244,5.0,14.0,83,0.00,,,0.03,,2013-06-11 15:12:00,
2013-06-11 11:22:00,67.0,62.0,30.01,West,270,1.0,8.0,83,0.00,,,0.03,,2013-06-11 15:22:00,
2013-06-11 11:33:00,68.0,62.0,30.01,West,265,2.0,9.0,81,0.00,,,0.03,,2013-06-11 15:33:00,
2013-06-11 11:43:00,68.0,62.0,30.01,West,265,2.0,9.0,81,0.00,,,0.03,,2013-06-11 15:43:00,
2013-06-11 11:53:00,68.0,62.0,30.01,NW,325,3.0,8.0,81,0.00,,,0.03,,2013-06-11 15:53:00,
2013-06-11 12:03:00,69.0,63.0,30.01,SW,236,2.0,12.0,81,0.00,,,0.03,,2013-06-11 16:03:00,
2013-06-11 12:12:00,69.0,63.0,30.01,SW,236,2.0,12.0,81,0.00,,,0.03,,2013-06-11 16:12:00,
2013-06-11 12:22:00,69.0,63.0,30.01,SW,236,4.0,8.0,80,0.00,,,0.03,,2013-06-11 16:22:00,
2013-06-11 12:33:00,70.0,63.0,30.01,NW,325,1.0,7.0,79,0.00,,,0.03,,2013-06-11 16:33:00,
2013-06-11 12:42:00,70.0,63.0,30.01,NW,325,1.0,7.0,79,0.00,,,0.03,,2013-06-11 16:42:00,
2013-06-11 12:53:00,70.0,62.0,30.01,WSW,242,2.0,10.0,77,0.00,,,0.03,,2013-06-11 16:53:00,
2013-06-11 13:02:00,71.0,64.0,30.01,SW,227,2.0,7.0,79,0.00,,,0.03,,2013-06-11 17:02:00,
2013-06-11 13:12:00,71.0,64.0,30.01,SW,227,2.0,7.0,79,0.00,,,0.03,,2013-06-11 17:12:00,
2013-06-11 13:22:00,71.0,63.0,30.01,WSW,249,2.0,11.0,77,0.00,,,0.03,,2013-06-11 17:22:00,
2013-06-11 13:32:00,71.0,63.0,30.01,WNW,290,1.0,7.0,75,0.00,,,0.03,,2013-06-11 17:32:00,
2013-06-11 13:43:00,72.0,64.0,30.01,West,272,0.0,8.0,77,0.00,,,0.02,,2013-06-11 17:43:00,
2013-06-11 13:53:00,72.0,64.0,30.01,West,272,0.0,8.0,77,0.00,,,0.02,,2013-06-11 17:53:00,
2013-06-11 14:02:00,72.0,63.0,30.01,WSW,240,2.0,9.0,74,0.00,,,0.02,,2013-06-11 18:02:00,
2013-06-11 14:12:00,72.0,63.0,30.01,WSW,240,2.0,9.0,74,0.00,,,0.02,,2013-06-11 18:12:00,
2013-06-11 14:22:00,72.0,63.0,30.01,West,265,1.0,5.0,74,0.00,,,0.02,,2013-06-11 18:22:00,
2013-06-11 14:33:00,73.0,63.0,30.01,West,262,3.0,10.0,72,0.00,,,0.02,,2013-06-11 18:33:00,
2013-06-11 14:43:00,73.0,63.0,30.01,West,262,3.0,10.0,72,0.00,,,0.02,,2013-06-11 18:43:00,
2013-06-11 14:52:00,72.0,62.0,30.02,WNW,296,2.0,8.0,71,0.00,,,0.02,,2013-06-11 18:52:00,
2013-06-11 15:02:00,73.0,64.0,30.01,WNW,302,1.0,8.0,74,0.00,,,0.02,,2013-06-11 19:02:00,
2013-06-11 15:12:00,73.0,64.0,30.01,WNW,302,1.0,8.0,74,0.00,,,0.02,,2013-06-11 19:12:00,
2013-06-11 15:22:00,73.0,63.0,30.01,West,278,2.0,9.0,71,0.00,,,0.02,,2013-06-11 19:22:00,
2013-06-11 15:33:00,74.0,64.0,30.01,WNW,290,2.0,11.0,70,0.00,,,0.02,,2013-06-11 19:33:00,
2013-06-11 15:42:00,74.0,64.0,30.01,WNW,290,2.0,11.0,70,0.00,,,0.02,,2013-06-11 19:42:00,
2013-06-11 15:53:00,73.0,62.0,30.01,West,277,4.0,8.0,69,0.00,,,0.02,,2013-06-11 19:53:00,
2013-06-11 16:03:00,73.0,62.0,30.01,West,277,4.0,8.0,69,0.00,,,0.02,,2013-06-11 20:03:00,
2013-06-11 16:12:00,73.0,62.0,30.01,West,277,4.0,8.0,69,0.00,,,0.02,,2013-06-11 20:12:00,
2013-06-11 16:22:00,73.0,62.0,30.01,West,277,4.0,8.0,69,0.00,,,0.02,,2013-06-11 20:22:00,
2013-06-11 16:32:00,73.0,62.0,30.01,West,277,4.0,8.0,69,0.00,,,0.02,,2013-06-11 20:32:00,